Wind_Speed
41 44 39 37 39 39 36 35 36 37 37 39 41 41 44 44 44 43 43 43 43 43 41 39 38 39 38 37 39 37 37 38 38 37 35 37 35 34 33 34 32 31 30
47 42 39 41 42 39 39 36 36 37 35 36 37 37 37 40 44 44 43 43 41 41 40 39 38 39 38 37 37 37 38 36 36 34 33 34 34 33 34 35 35 33 32
43 40 43 40 37 43 41 37 37 41 37 32 33 35 34 35 37 40 43 42 40 38 37 37 39 39 40 39 37 37 37 38 36 35 34 33 33 31 31 32 32 32 32
46 47 43 41 42 43 41 41 39 41 40 36 35 36 36 35 35 35 35 35 37 36 37 38 34 32 34 36 37 36 35 36 37 36 33 33 30 27 28 29 31 32 32
43 44 43 42 43 42 41 43 41 41 42 37 36 37 37 34 32 30 30 31 30 31 31 32 33 33 36 35 35 36 35 35 37 37 36 34 33 32 30 27 27 29 29
42 44 41 41 44 45 44 46 41 41 41 39 36 38 37 36 34 32 31 28 25 24 27 30 32 32 34 33 35 37 39 36 37 40 38 36 33 31 30 28 27 27 27
45 45 43 43 43 45 44 42 38 39 40 40 39 38 36 37 38 38 34 32 30 30 28 27 29 31 33 33 34 34 36 38 39 39 39 37 34 30 27 27 26 23 22
47 46 45 43 42 42 42 37 38 38 39 40 39 40 36 33 35 35 33 35 34 35 33 34 33 31 31 30 32 34 36 36 37 37 36 36 33 29 23 19 21 23 17
40 38 40 39 39 39 35 36 36 38 39 40 40 39 38 38 37 39 37 39 39 38 39 39 39 38 36 34 33 32 35 39 39 38 39 36 36 35 34 34 32 26 25
40 37 36 38 36 35 37 35 38 39 39 39 38 37 38 39 40 42 42 42 44 44 44 45 45 44 43 42 40 41 40 39 40 43 44 41 41 42 41 45 41 36 32
41 39 33 32 34 35 36 39 38 39 41 41 40 38 37 38 39 41 43 44 44 45 47 48 48 49 48 47 46 45 44 42 40 39 42 43 44 44 44 47 44 42 38
37 37 38 37 36 36 37 40 41 43 42 45 45 44 43 41 40 41 42 44 47 49 51 52 53 52 52 53 52 49 48 45 42 42 41 44 48 48 44 46 46 43 40
38 36 38 41 40 42 41 41 43 45 45 45 44 47 48 49 49 50 50 52 54 53 52 52 54 56 58 56 54 55 54 53 51 49 45 47 46 51 48 44 48 45 47
47 46 46 43 44 44 41 42 46 49 50 50 51 53 54 55 54 56 55 57 56 59 59 59 59 58 57 60 61 61 59 57 57 56 51 49 51 52 57 53 52 49 44
50 50 47 46 46 48 49 46 50 53 55 57 58 57 56 57 59 59 61 62 64 63 64 65 65 65 64 60 58 62 64 66 66 63 60 55 56 54 56 59 58 56 51
46 45 47 46 48 50 49 51 55 57 54 53 52 51 53 56 58 61 63 64 66 66 67 69 70 70 70 67 65 62 61 64 70 69 68 64 59 64 59 59 59 60 60
45 44 44 44 45 46 47 47 47 50 51 53 55 58 60 61 61 64 65 69 70 71 71 72 74 74 73 72 71 71 63 64 67 72 74 69 68 65 69 66 64 64 63
45 45 43 43 44 47 48 50 51 53 57 56 59 63 64 66 67 67 70 71 72 77 76 80 75 78 76 67 62 66 63 61 66 73 74 75 74 72 70 73 71 72 71
46 46 46 48 51 52 52 54 56 58 58 62 63 66 69 69 71 74 76 77 75 76 74 71 70 66 58 58 60 62 67 70 69 74 77 77 77 79 77 75 80 74 76
50 52 52 53 54 56 58 62 62 62 65 67 68 71 74 73 73 75 77 74 74 68 69 68 69 67 65 68 70 70 74 77 80 86 86 85 80 82 84 82 82 83 83
56 59 60 61 62 62 64 66 68 70 70 71 74 76 78 78 78 75 77 71 69 67 68 72 70 68 73 77 82 83 87 90 96 101 104 98 89 79 86 89 87 87 85
62 65 68 70 70 73 73 74 74 76 78 77 80 82 81 80 83 78 73 73 73 73 72 70 75 81 84 87 90 90 98 106 111 111 107 102 94 88 86 85 91 91 91
66 69 73 75 77 78 79 80 81 82 80 84 83 86 85 83 82 77 76 76 83 84 86 91 96 96 100 100 105 105 100 108 113 112 110 108 103 96 90 89 88 93 93
67 72 75 78 79 81 84 87 86 86 87 85 88 89 85 88 88 84 81 86 94 94 98 100 108 111 111 107 106 103 101 97 95 93 91 90 94 98 99 98 96 92 97
78 79 83 86 86 87 87 86 92 92 94 94 91 90 83 84 82 86 93 93 100 103 107 111 117 116 113 104 100 95 89 83 86 85 82 78 80 83 87 91 95 96 99
80 85 91 94 94 94 94 94 93 94 94 94 88 88 93 92 88 94 96 97 109 113 119 118 119 116 108 103 97 89 86 84 83 83 78 78 76 78 81 85 90 94 94
Wind_Direction
273 284 278 284 286 284 294 287 289 286 282 283 280 279 278 277 277 274 275 275 275 275 273 273 276 276 274 275 278 279 279 278 276 276 277 275 270 270 269 264 265 267 265
281 280 279 283 281 283 289 282 284 286 287 289 283 280 283 279 275 274 277 275 277 275 271 271 273 276 275 274 275 278 278 274 272 273 277 277 272 271 268 266 268 266 264
279 276 281 280 279 284 286 290 282 284 287 294 296 290 290 283 279 276 275 273 273 272 271 275 280 279 277 276 275 275 276 275 271 270 271 273 270 268 267 267 265 267 268
276 277 279 279 277 286 285 293 281 282 287 288 295 296 291 284 284 286 284 281 278 273 272 273 273 278 277 277 275 273 272 272 269 268 269 272 268 264 263 267 267 265 267
282 278 279 281 283 290 288 294 285 279 287 291 298 298 296 285 283 286 288 286 284 278 273 273 272 276 280 280 279 275 272 270 267 266 269 271 268 263 263 267 268 268 268
281 281 282 283 289 293 295 297 287 280 287 287 294 297 294 288 281 284 287 287 288 292 285 282 282 281 280 280 281 274 271 267 262 264 268 271 271 267 265 269 272 270 271
280 279 281 286 291 292 293 287 280 282 287 286 291 293 295 290 287 283 284 282 283 285 284 284 287 284 279 280 278 277 271 268 259 261 264 270 269 264 263 266 274 271 280
290 282 282 285 287 288 287 278 282 283 286 289 289 289 287 286 285 284 279 280 280 282 281 281 282 284 288 285 276 275 275 272 264 259 263 266 267 258 255 257 263 270 290
295 291 286 283 287 284 277 277 277 279 283 285 286 288 287 284 284 285 285 286 284 284 284 286 283 281 280 277 273 274 271 268 269 267 263 261 261 263 263 263 259 260 266
297 294 290 287 282 277 276 279 283 285 287 286 288 286 288 287 287 285 283 285 283 282 280 278 278 274 273 271 270 270 275 275 270 265 262 261 258 258 257 261 264 261 258
291 289 283 278 278 282 282 282 281 283 285 286 286 287 291 287 288 286 283 281 279 278 278 278 276 275 274 272 267 267 268 271 270 269 263 257 259 260 258 255 256 260 258
287 284 282 284 282 280 282 282 279 279 282 284 285 289 289 289 287 287 286 285 281 278 277 276 274 273 272 270 266 264 263 264 266 263 264 260 249 252 253 254 255 255 251
282 284 285 282 279 278 280 280 277 283 288 289 291 290 290 289 290 290 289 289 286 285 280 280 278 277 277 274 272 270 263 262 262 260 257 250 252 248 246 253 255 252 250
290 290 293 287 280 278 280 281 278 280 284 288 290 292 293 292 289 288 288 287 286 285 283 283 282 280 276 272 271 268 268 265 262 259 255 253 247 243 246 243 250 252 247
288 291 289 286 280 278 275 276 277 279 282 285 290 291 291 290 289 289 288 286 285 285 284 284 284 284 280 278 273 268 264 263 262 259 256 249 243 237 244 244 246 245 246
284 284 285 285 280 279 279 281 284 286 292 292 293 295 296 296 295 294 294 293 292 290 287 287 286 284 281 279 275 272 272 262 258 257 257 252 244 239 239 236 241 243 242
280 281 281 282 281 279 280 282 285 289 290 293 295 296 297 298 299 298 297 292 290 289 289 287 285 283 282 282 281 280 275 268 261 256 253 253 249 241 239 237 232 236 239
274 274 275 278 283 284 283 285 285 286 290 293 297 296 297 299 297 297 296 293 290 287 286 285 283 281 282 282 277 273 274 272 270 262 255 249 247 245 241 237 235 232 233
274 275 280 283 282 284 284 287 286 289 291 292 295 294 297 298 297 297 296 295 291 288 284 282 281 279 269 267 263 266 269 268 262 265 263 255 248 243 241 238 236 232 229
278 278 278 279 280 284 287 291 292 293 295 295 295 296 297 297 299 298 296 296 297 293 284 281 280 272 269 267 268 266 271 275 275 264 257 256 253 247 241 238 234 233 229
282 282 283 284 285 286 289 293 292 292 296 296 296 297 298 296 299 297 295 297 294 285 286 277 278 268 272 272 269 273 273 272 269 267 268 257 255 248 245 238 233 232 232
282 285 286 289 291 292 293 294 296 297 297 297 298 299 297 295 295 292 289 294 300 297 294 289 290 289 279 273 274 279 275 270 266 263 266 266 263 256 250 246 240 233 231
281 283 286 288 292 294 295 297 297 296 298 300 299 300 299 295 294 288 297 296 299 305 303 302 304 298 298 292 290 287 280 274 268 268 270 266 265 262 254 251 244 241 233
288 291 293 293 293 295 297 296 296 299 300 299 300 299 297 289 291 293 299 303 307 306 305 301 300 299 295 291 289 287 285 283 279 272 268 262 260 258 256 253 248 242 239
292 293 294 295 295 296 297 298 301 300 301 301 300 298 299 292 290 292 295 300 303 304 303 299 298 296 296 291 288 287 283 282 277 275 269 260 257 255 251 248 246 244 241
290 292 292 293 294 296 295 296 298 296 297 298 295 305 307 300 301 299 299 298 300 298 299 298 298 296 296 293 291 288 285 281 277 273 268 264 258 253 249 246 242 240 239
Height
10858 10855 10853 10850 10849 10847 10845 10843 10840 10835 10831 10829 10826 10824 10824 10824 10823 10822 10820 10819 10818 10817 10815 10815 10814 10813 10811 10810 10810 10810 10809 10807 10806 10805 10804 10804 10804 10803 10802 10801 10800 10797 10796
10851 10848 10845 10843 10841 10839 10837 10836 10832 10829 10825 10823 10821 10819 10818 10815 10813 10813 10812 10811 10811 10810 10809 10808 10807 10805 10804 10804 10803 10803 10802 10800 10799 10799 10799 10799 10798 10797 10796 10794 10794 10790 10790
10840 10840 10839 10837 10834 10831 10830 10827 10825 10822 10820 10817 10815 10813 10810 10807 10806 10806 10805 10804 10804 10803 10802 10802 10801 10799 10799 10798 10797 10797 10796 10795 10794 10793 10793 10793 10791 10791 10789 10787 10786 10784 10784
10830 10830 10830 10829 10827 10824 10821 10819 10817 10814 10813 10811 10809 10807 10804 10802 10800 10798 10797 10796 10795 10795 10795 10795 10795 10793 10791 10790 10789 10789 10789 10789 10789 10789 10788 10787 10786 10785 10784 10782 10780 10779 10779
10820 10820 10821 10820 10818 10816 10813 10811 10809 10808 10806 10804 10802 10800 10798 10796 10795 10793 10791 10790 10789 10788 10788 10787 10788 10787 10785 10784 10783 10782 10783 10783 10782 10782 10781 10781 10780 10779 10779 10777 10776 10775 10775
10812 10811 10811 10811 10809 10807 10805 10803 10801 10800 10799 10797 10796 10793 10791 10790 10788 10787 10785 10784 10782 10782 10781 10780 10780 10779 10777 10777 10776 10775 10776 10776 10775 10775 10775 10774 10774 10774 10774 10773 10772 10771 10770
10804 10801 10801 10801 10800 10798 10797 10795 10793 10792 10791 10790 10788 10786 10785 10783 10782 10781 10779 10778 10777 10776 10775 10774 10773 10772 10771 10769 10768 10767 10767 10768 10768 10768 10768 10768 10767 10768 10768 10767 10767 10766 10766
10794 10792 10791 10791 10791 10790 10788 10787 10786 10785 10784 10782 10781 10779 10777 10775 10774 10772 10771 10771 10770 10769 10767 10767 10766 10765 10763 10762 10761 10762 10760 10760 10760 10760 10761 10761 10761 10760 10761 10760 10761 10760 10760
10785 10784 10784 10784 10783 10782 10780 10780 10779 10777 10775 10774 10772 10771 10770 10768 10766 10764 10763 10762 10761 10760 10758 10756 10756 10756 10756 10755 10754 10753 10752 10753 10753 10752 10753 10753 10753 10753 10753 10752 10751 10752 10749
10778 10777 10776 10776 10775 10774 10773 10772 10771 10770 10768 10766 10765 10764 10762 10760 10758 10756 10755 10752 10752 10750 10749 10746 10746 10746 10745 10746 10746 10745 10745 10744 10743 10743 10743 10743 10744 10745 10745 10745 10747 10746 10746
10772 10770 10769 10768 10768 10766 10765 10764 10763 10761 10759 10758 10756 10755 10753 10752 10749 10748 10746 10744 10742 10740 10738 10736 10735 10735 10734 10733 10734 10736 10736 10734 10734 10733 10733 10733 10734 10736 10736 10735 10738 10741 10743
10765 10764 10762 10761 10759 10758 10756 10754 10753 10751 10751 10748 10747 10746 10744 10742 10740 10738 10736 10734 10732 10729 10728 10725 10724 10723 10722 10722 10722 10722 10722 10724 10724 10722 10723 10723 10725 10725 10726 10725 10728 10733 10735
10758 10757 10755 10754 10751 10749 10748 10746 10743 10742 10740 10739 10737 10736 10734 10731 10729 10726 10725 10723 10720 10718 10716 10714 10712 10711 10709 10708 10707 10708 10708 10709 10711 10710 10711 10713 10714 10716 10715 10716 10718 10723 10727
10748 10747 10746 10745 10744 10742 10740 10737 10734 10732 10730 10729 10727 10724 10722 10720 10717 10714 10711 10709 10706 10703 10701 10698 10697 10695 10695 10694 10693 10693 10693 10694 10694 10695 10695 10698 10702 10703 10703 10707 10709 10711 10716
10738 10736 10734 10733 10732 10732 10731 10728 10724 10721 10720 10719 10716 10713 10710 10707 10704 10701 10698 10695 10692 10690 10687 10684 10681 10679 10678 10678 10677 10676 10675 10677 10678 10677 10678 10681 10685 10688 10691 10695 10698 10701 10703
10729 10726 10723 10722 10721 10720 10719 10717 10713 10710 10708 10705 10702 10698 10694 10690 10687 10683 10681 10678 10675 10673 10671 10667 10664 10661 10658 10657 10657 10657 10657 10656 10657 10659 10660 10662 10666 10670 10672 10679 10684 10688 10689
10718 10716 10713 10711 10709 10707 10706 10704 10702 10698 10695 10692 10689 10685 10681 10676 10673 10670 10665 10661 10657 10654 10650 10648 10646 10643 10640 10639 10638 10637 10636 10635 10636 10637 10641 10644 10646 10650 10652 10658 10665 10670 10676
10707 10706 10703 10701 10700 10698 10696 10693 10691 10687 10684 10679 10674 10669 10665 10662 10658 10654 10649 10644 10640 10636 10633 10630 10627 10624 10622 10620 10618 10616 10617 10617 10616 10616 10616 10619 10624 10631 10635 10640 10642 10648 10656
10697 10695 10694 10691 10688 10686 10683 10681 10678 10675 10672 10668 10662 10655 10649 10645 10640 10634 10629 10624 10620 10617 10614 10610 10608 10605 10603 10600 10597 10596 10597 10596 10596 10596 10595 10598 10603 10606 10608 10615 10620 10628 10638
10684 10681 10678 10675 10673 10671 10669 10666 10662 10659 10654 10650 10645 10640 10633 10627 10621 10615 10609 10604 10597 10593 10590 10588 10587 10587 10586 10581 10576 10573 10572 10571 10570 10568 10569 10571 10577 10583 10586 10591 10596 10606 10615
10670 10667 10663 10659 10658 10655 10652 10649 10645 10640 10636 10630 10625 10620 10614 10608 10602 10596 10591 10586 10580 10575 10572 10568 10567 10565 10564 10558 10555 10548 10543 10544 10542 10537 10536 10540 10548 10553 10560 10565 10570 10579 10590
10655 10652 10647 10643 10640 10637 10634 10631 10627 10622 10617 10611 10606 10600 10595 10589 10582 10575 10571 10566 10560 10555 10550 10547 10542 10540 10538 10533 10527 10523 10514 10505 10504 10500 10504 10509 10515 10527 10534 10540 10548 10554 10565
10642 10637 10632 10628 10624 10620 10617 10613 10608 10603 10597 10592 10586 10581 10574 10567 10560 10553 10547 10541 10536 10530 10525 10519 10513 10511 10505 10500 10493 10486 10480 10470 10471 10471 10471 10474 10480 10490 10500 10510 10520 10528 10538
10625 10620 10616 10612 10608 10603 10598 10593 10588 10583 10577 10571 10564 10557 10550 10543 10537 10530 10523 10517 10510 10504 10499 10492 10485 10481 10474 10466 10458 10451 10445 10437 10432 10431 10434 10439 10446 10451 10466 10473 10487 10498 10511
10606 10602 10598 10593 10590 10585 10579 10574 10567 10561 10554 10548 10542 10535 10527 10521 10513 10506 10500 10492 10485 10479 10473 10468 10457 10445 10438 10434 10425 10421 10414 10409 10405 10403 10400 10407 10412 10420 10428 10438 10449 10464 10478
10586 10583 10579 10574 10569 10564 10559 10553 10547 10541 10533 10526 10519 10511 10504 10496 10487 10479 10473 10466 10461 10453 10446 10436 10427 10416 10408 10401 10395 10389 10385 10383 10380 10378 10377 10377 10385 10394 10400 10407 10418 10431 10446